{"data":{"norad_id":46035,"epoch":"2026-09-19T20:30:26.801568Z","epoch_age_seconds":73967,"freshness":"FRESH","line1":"1 46035U 20055J   26262.85447687 -.00000096  00000+0  86850-5 0  9994","line2":"2 46035  53.1611 303.9510 0001269  60.6309 299.4819 15.31715719338635","mean_motion":15.31715719,"eccentricity":0.0001269,"inclination_deg":53.1611,"raan_deg":303.951,"arg_perigee_deg":60.6309,"mean_anomaly_deg":299.4819,"bstar":8.685e-6,"rev_number":33863,"period_min":94.012223165022,"perigee_km":469.82402156079,"apogee_km":471.56225464985,"semimajor_km":6848.8301381053,"source":"CELESTRAK","updated_at":"2026-09-20T09:00:38.460456Z"}}